Find Kuiper-00059

NORAD ID: 64519 Int'l Des: 2025-134 Owner: KUIP Country: US Constellation: amazon-leo operational
LEOCIRCULAR

当前视图

正在加载3D地球...

About Kuiper-00059

Kuiper-00059 (NORAD 64519) is a amazon-leo constellation satellite launched Jun 23, 2025 by KUIP of US. It operates in LEO, CIRCULAR orbit with a mass of 490.00 kg.

即将过境

Passes for default location (London). Set your location on the main map for personalized predictions.

高度历史

Loading altitude history...

两行轨道根数

1 64519U 25134V 26264.21017072 .00000058 00000-0 36631-4 0 9996
2 64519 51.8987 75.9908 0000439 127.3148 232.7855 14.79928898 69209
Epoch: Sep 21, 2026 • Age: 6 hours

当前状态

高度 633.6 km
远地点 / 近地点 N/A
速度 7.54 km/s
星下点 -14.79°S, 109.06°W
发射日期 Jun 23, 2025
运行时间 1.2 years
类型 internet

技术详情

分类 Payload
质量 490.00 kg
形状 ? Box + 2 pan
制造商 KUIP
平台类型 Kuiper
阶段状态 In Orbit
所有者/国家 KUIP/US

Most Searched